Weather in Dal'nyaya Igumenka

Russia / Belgorod Oblast     50°41′21″N   36°44′23″E
temp.,
°C
wind,
m/s
gust,
m/s
humid.,
%
clouds,
%
prec.,
mm/h
press.,
hPa
HPBL,
m
9 may, sun
sun900:00+5wnw71297100 0.0 1010739
03:00+5wnw71292100 0.1 1012944
06:00+5nw71180100 0.1 10131027
09:00+7nw81170100 0.1 10151163
12:00+10nw8105493 0.1 10162025
15:00+10nw81055100 0.1 10182111
18:00+9nw7106345 0.1 10201556
21:00+6nnw411765 0.1 1023320
10 may, mon
mon1000:00+4nw410825 0.0 1024219
03:00+3nw310815 0.0 1025230
06:00+4nnw514770 0.0 1025347
09:00+10n712590 0.0 10251161
12:00+12n912475 0.0 10231830
15:00+13n9124916 0.0 10231924
18:00+12n813595 0.0 10221505
21:00+10n91559100 0.0 10211011
11 may, tue
tue1100:00+9nne91877100 0.3 1020717
03:00+9nne91786100 0.8 1018582
06:00+9nne91888100 0.0 1018595
09:00+9ne81493100 1.3 1018704
12:00+11ene81287100 0.2 10191239
15:00+12ene8116788 0.3 10211461
18:00+12ene814735 0.1 10211441
21:00+9ene6147750 0.1 1021762
12 may, wed
wed1200:00+8ene7148294 0.0 1020868
03:00+8e71284100 0.1 1019815
06:00+8ese81584100 0.1 10191163
09:00+7ese81392100 3.5 10201088
12:00+9ese71189100 0.6 10201142
15:00+12se71174100 0.6 10191149
18:00+11e498495 0.3 1018350
21:00+10ese3992100 0.9 1018285
13 may, thu
thu1300:00+10ene2297100 2.7 101761
03:00+9e129685 3.3 101718
06:00+9ese389513 0.0 1017193
09:00+14se578036 0.0 1016471
12:00+18se6862100 0.0 10161489
15:00+20se68565 0.0 10151816
18:00+19ese5968100 0.0 1015497
21:00+15ese51380100 0.0 1015290